Theta_e
338 338 339 339 341 339 339 340 340 339 339 339 338 337 338 338 336 336 334 332 331 328 327 326 325 325 323 322 322 321 321 320 320 319 319 318 317 317 315 314 313 314 313 312 311 313 312 310 311 311 312 311 310 310 308 309 310 310 310 310 310 312 311 309 307 303 303 305 304 303 304 305 302 303 303 304 305 306 306 307 308 308 307 307 307
338 338 339 339 339 339 340 340 339 339 338 338 337 336 337 337 336 334 332 331 329 327 326 326 325 323 322 321 321 320 320 319 318 318 317 316 316 315 314 313 313 313 312 310 311 312 313 310 309 310 311 310 310 307 307 307 307 306 307 308 308 310 313 309 306 303 300 301 301 302 303 304 301 303 304 304 305 306 305 305 306 306 306 307 306
338 338 338 338 339 339 339 338 338 338 337 337 336 336 336 336 335 334 332 330 328 327 326 325 323 322 322 321 320 319 319 318 317 316 315 315 314 314 314 313 313 312 311 311 309 311 311 311 310 310 311 310 310 310 310 308 307 306 306 307 308 308 308 309 306 303 301 300 303 301 303 303 304 302 303 304 305 304 303 304 305 307 307 307 307
338 337 338 338 339 339 338 338 338 337 336 336 336 337 336 335 334 333 331 330 327 326 325 323 322 321 321 319 319 318 318 317 315 315 314 315 314 313 313 313 313 313 311 310 309 309 310 310 310 310 310 309 308 308 308 308 307 305 306 307 307 307 307 308 308 305 303 299 300 300 302 302 302 303 303 304 304 305 304 304 306 306 307 306 307
338 338 338 337 338 338 338 337 336 336 336 336 336 336 335 335 333 332 330 328 327 325 323 321 320 320 320 319 318 317 316 315 313 314 315 316 315 314 312 312 313 312 312 311 310 310 310 310 309 310 310 308 308 306 307 307 306 306 305 305 305 306 306 306 306 306 303 302 301 303 303 302 303 303 303 302 303 303 305 305 304 305 307 308 309
337 337 337 337 337 337 337 336 335 336 336 336 335 336 335 334 333 332 330 327 326 324 321 320 319 319 320 319 318 317 315 314 313 313 314 315 315 314 313 312 312 311 311 311 310 311 310 310 309 309 309 308 307 307 307 307 306 305 304 304 304 306 306 306 306 305 304 302 302 300 303 302 302 303 303 303 303 302 303 304 306 306 306 306 307
337 337 337 337 336 336 336 335 335 336 336 335 335 335 334 334 333 331 329 327 325 323 321 319 319 320 319 318 317 316 314 313 313 313 313 314 314 313 312 312 311 311 311 310 310 310 310 310 310 309 309 309 308 307 307 307 306 305 305 306 305 305 305 304 303 303 303 302 302 303 302 302 304 302 302 304 304 302 302 302 302 304 305 305 305
336 336 337 336 335 335 335 335 335 335 335 335 333 334 334 334 333 332 329 326 324 323 320 319 319 320 319 318 317 315 313 312 313 314 314 314 313 313 312 311 310 310 311 310 310 310 310 310 309 309 309 309 308 308 307 306 306 305 306 306 306 305 304 304 303 302 302 301 300 300 302 302 301 303 303 304 304 304 304 302 300 301 303 305 306
336 336 336 335 335 336 336 335 335 336 334 333 332 332 333 334 332 331 329 327 325 323 321 320 319 318 318 317 315 314 312 312 313 314 314 313 313 312 311 310 310 309 309 309 310 309 309 310 309 309 310 308 307 306 307 306 305 304 305 306 306 306 305 304 303 302 301 301 301 302 300 300 301 302 301 301 300 300 303 304 303 304 303 303 304
335 335 335 334 335 336 336 335 334 333 333 332 331 331 331 332 332 330 328 326 323 322 321 320 318 318 316 315 314 313 312 313 310 307 308 312 312 311 311 311 310 309 309 309 309 309 309 309 310 307 306 305 302 300 299 301 304 305 305 307 306 306 305 303 302 301 301 300 300 300 300 300 300 302 301 302 303 304 304 305 302 302 304 303 304
335 335 334 335 335 336 336 334 333 331 331 331 331 330 330 331 331 329 328 325 322 320 320 318 318 317 316 314 313 312 312 312 302 299 300 303 310 311 311 310 310 310 309 309 308 309 309 308 309 307 306 304 303 297 297 296 297 298 300 303 307 307 305 303 302 303 301 301 302 301 300 300 301 302 302 302 303 303 302 303 302 302 301 299 297
335 335 335 335 334 335 334 333 331 331 331 330 330 329 329 329 329 328 326 324 321 320 319 317 317 317 316 314 313 312 312 306 297 297 298 299 304 310 311 310 310 310 309 309 309 309 308 308 309 309 309 308 306 302 299 296 295 295 295 296 296 297 299 306 305 303 303 302 301 301 301 301 301 302 302 302 302 303 304 304 303 301 301 299 300
334 334 335 334 334 334 333 332 331 330 330 330 330 328 327 326 327 326 325 325 321 318 318 317 317 317 316 314 313 312 313 300 296 296 297 297 299 306 310 311 310 310 310 309 308 308 308 307 308 310 310 307 305 305 304 301 297 295 295 296 295 294 293 292 295 308 306 303 302 302 302 302 301 302 303 304 305 303 302 301 302 302 303 302 300
334 333 334 334 334 334 333 331 330 330 329 329 328 327 326 325 326 326 325 324 319 318 318 318 318 316 315 314 313 313 313 300 296 296 296 296 296 301 310 310 310 310 309 309 309 309 308 307 306 308 309 307 307 306 305 303 302 301 301 302 302 301 296 292 292 291 300 306 304 302 304 305 302 304 306 306 304 302 302 301 303 302 302 301 304
334 333 333 334 334 333 332 331 330 329 329 329 328 326 326 326 327 326 324 322 319 317 317 318 318 316 315 314 314 312 312 297 295 295 295 295 295 300 311 310 310 310 310 310 310 309 309 308 308 308 308 307 306 305 304 303 303 303 302 302 303 305 306 306 305 306 305 306 306 306 306 307 307 307 307 307 306 306 306 305 305 304 304 306 307
334 334 333 333 334 333 332 331 329 329 328 328 327 326 326 327 326 325 323 320 320 319 319 319 317 316 316 315 314 312 310 295 295 295 295 295 295 307 310 309 309 309 310 310 309 309 309 309 308 308 307 307 302 296 300 304 302 302 301 302 302 304 307 308 299 301 308 308 308 307 307 309 299 307 307 306 306 307 305 305 305 305 303 301 299
333 333 332 334 333 333 332 330 329 328 328 327 327 326 326 326 326 324 321 319 318 317 317 318 319 316 314 313 313 312 306 296 294 294 294 294 298 308 308 307 308 308 309 309 308 308 308 308 308 307 306 306 298 293 294 299 303 302 301 301 301 302 304 308 294 290 292 293 293 292 291 291 291 291 291 291 298 302 304 302 303 304 300 298 299
333 333 333 334 333 333 332 330 329 328 328 327 326 325 326 326 325 322 321 319 317 318 318 318 319 317 314 313 311 308 305 298 294 294 294 294 301 307 307 307 307 307 308 308 308 307 307 307 307 307 305 305 293 292 292 299 303 302 301 300 300 301 304 307 305 303 292 292 292 291 291 291 291 291 291 291 291 295 303 301 303 302 300 299 297
333 333 334 334 334 333 331 330 329 328 328 327 327 325 325 324 325 324 323 320 318 319 318 318 318 317 315 311 308 309 307 300 294 294 294 294 301 308 306 306 306 307 307 306 307 306 306 306 305 305 306 303 291 292 292 299 303 302 301 301 300 301 303 306 304 304 304 304 304 303 301 298 301 304 305 294 293 296 304 305 305 303 299 299 299
334 335 335 334 333 332 331 329 329 328 328 327 327 326 325 325 323 322 323 322 319 319 319 317 313 313 312 311 310 311 307 302 298 294 294 294 298 307 307 306 305 306 306 306 305 306 305 306 303 295 295 293 292 291 291 294 302 303 303 302 301 300 303 305 305 304 305 303 304 305 305 307 307 306 307 308 303 303 306 307 306 304 302 301 300
335 335 334 332 331 331 331 330 329 329 328 328 327 325 325 324 323 321 321 321 320 318 317 317 314 313 313 313 312 311 308 304 300 293 294 295 296 301 306 306 307 306 306 305 305 305 304 305 306 297 292 292 292 291 291 292 296 305 304 303 304 304 302 303 303 300 304 305 304 303 304 304 305 306 306 307 306 307 306 306 306 306 304 302 300
334 333 332 332 331 331 330 330 330 329 329 328 327 326 326 326 324 323 321 317 315 315 315 315 315 314 313 311 311 311 308 303 303 294 294 294 296 298 305 307 307 307 306 306 305 305 305 305 307 299 291 291 291 292 291 292 292 303 304 296 293 289 300 301 303 302 302 303 301 300 301 301 302 303 302 303 304 307 307 307 306 306 306 306 304
333 332 331 331 329 330 330 329 329 330 328 327 327 327 326 325 323 319 317 315 314 312 312 314 315 313 310 309 311 311 308 304 298 298 294 294 295 296 298 302 297 307 306 305 305 305 306 307 306 298 292 291 291 291 292 291 292 299 294 291 290 288 295 299 301 301 300 301 300 300 300 301 302 301 301 302 304 308 308 308 308 307 306 306 306
333 331 329 329 328 328 329 329 329 329 328 327 328 326 324 324 321 318 316 313 312 310 310 312 313 311 308 306 307 309 308 306 298 296 296 293 294 295 295 296 296 305 307 307 307 307 307 308 305 295 292 292 291 291 292 292 298 293 291 290 289 291 298 299 298 299 299 297 298 299 300 301 301 301 301 303 305 307 307 307 307 308 307 308 308
331 329 329 330 329 330 330 329 328 329 328 327 326 324 324 323 320 318 315 313 312 310 310 311 311 309 307 305 305 305 306 306 303 297 294 293 294 294 294 294 294 296 305 307 308 308 302 298 296 294 293 292 291 291 291 291 291 292 291 289 292 298 300 300 299 299 297 296 297 299 300 301 302 302 306 306 305 306 306 307 309 309 309 308 307
329 329 329 329 329 330 329 330 330 331 329 326 324 325 324 322 319 316 314 313 312 311 310 310 310 309 307 307 305 304 304 304 302 300 296 295 295 294 294 294 295 296 301 305 299 298 295 295 294 293 293 294 298 300 301 301 291 291 290 291 298 299 300 301 300 298 296 296 297 297 299 301 302 305 306 305 303 302 304 305 305 304 308 306 303
327 328 328 329 330 330 328 329 329 330 329 323 322 321 323 322 319 315 314 313 311 311 310 308 307 306 306 307 306 304 304 304 303 301 300 300 300 299 297 299 295 295 301 307 300 303 299 298 299 295 297 294 296 296 298 296 296 295 296 297 299 300 300 301 301 300 297 297 297 298 299 301 303 302 301 302 302 304 306 303 303 303 304 304 302
327 327 328 328 326 326 328 310 320 326 322 319 318 319 320 320 318 314 312 312 311 310 308 306 305 304 305 305 304 303 303 304 304 302 302 301 301 302 302 303 302 303 304 307 306 305 303 296 296 301 302 301 301 303 303 303 301 299 300 300 300 300 299 297 297 301 300 300 299 299 300 301 300 300 301 302 302 303 306 303 303 303 303 303 301
327 328 329 327 325 324 326 325 325 325 320 317 317 318 317 318 318 316 316 315 313 311 309 308 307 307 308 308 306 305 304 304 305 299 302 298 299 302 302 303 304 304 302 298 305 305 304 302 302 303 303 303 298 303 303 302 301 301 301 301 300 300 299 298 299 299 300 299 298 299 298 300 300 301 300 301 302 303 306 305 305 304 304 303 300
326 326 326 325 325 323 325 325 325 321 316 312 309 307 295 300 310 316 313 306 301 301 302 308 309 311 311 311 310 307 306 307 299 296 296 295 295 297 297 298 297 301 297 294 300 304 304 303 304 302 303 304 302 301 302 302 301 299 300 295 299 300 299 299 300 301 302 300 300 299 299 300 299 300 301 300 302 304 305 298 304 305 302 301 301
321 321 321 323 321 322 322 320 315 311 310 309 310 309 307 302 294 299 302 298 299 299 301 300 300 302 310 310 307 296 298 296 295 295 294 294 294 294 294 295 295 294 292 298 301 301 300 301 301 303 301 304 301 302 301 301 297 299 299 299 299 300 296 300 301 300 300 296 299 300 300 299 299 300 300 300 302 303 304 303 302 303 302 301 301
319 319 320 321 316 315 318 313 312 311 311 311 311 309 307 304 301 293 294 295 295 296 296 295 298 298 299 303 305 305 295 294 294 293 293 293 293 293 293 293 293 292 292 295 299 300 300 301 300 301 302 302 300 300 302 303 301 301 301 298 298 298 298 298 300 302 299 299 297 296 298 299 300 299 301 300 299 301 302 303 303 302 302 302 301
320 319 317 312 311 309 312 313 312 311 311 310 309 309 308 305 301 299 296 292 293 294 294 295 296 296 296 297 298 298 296 294 293 293 293 293 292 292 292 292 292 291 292 297 300 299 301 303 302 303 302 300 302 302 302 303 303 303 302 301 298 298 298 300 299 300 298 299 298 298 298 298 297 296 294 296 296 297 299 300 302 303 302 300 297
324 319 314 313 314 313 314 314 312 311 311 310 309 310 309 308 305 303 299 298 298 295 293 294 295 294 294 295 295 293 293 293 293 293 292 292 292 291 292 293 291 291 294 300 301 300 301 302 302 302 302 302 302 301 301 302 301 302 301 301 302 303 302 302 299 298 297 298 296 298 297 298 296 295 296 298 299 299 298 298 301 300 299 299 297
318 304 298 304 316 314 314 314 311 310 311 311 309 308 309 307 306 303 302 301 301 301 301 299 294 295 297 294 293 292 292 292 292 292 292 291 291 291 292 296 294 295 297 302 302 302 301 300 301 300 301 301 301 301 300 302 301 300 301 301 302 303 302 300 299 299 299 300 299 298 296 294 298 296 295 296 296 297 298 298 300 301 301 299 296
316 312 310 309 312 313 313 313 312 311 310 310 310 308 306 305 303 304 304 302 303 302 300 300 299 293 293 293 292 292 292 292 292 292 291 291 290 292 296 297 297 297 297 299 301 303 301 301 299 300 301 302 302 301 301 301 301 301 302 302 300 301 301 300 297 297 299 299 298 296 297 297 297 296 297 297 298 298 298 299 298 299 300 299 298
314 311 310 311 312 311 311 311 312 311 302 302 304 304 302 302 302 303 302 302 301 301 300 298 298 297 296 296 293 291 291 291 291 291 291 290 291 296 301 299 299 299 297 299 299 300 299 299 300 301 302 301 301 301 300 301 301 301 298 300 301 301 301 300 298 294 295 294 294 296 297 296 296 296 295 293 294 297 298 299 297 296 296 295 293
310 309 309 309 309 309 309 309 305 295 301 305 306 305 303 303 302 301 300 301 299 298 298 299 296 299 299 297 296 295 292 290 290 290 290 290 292 298 302 300 300 300 300 300 300 299 299 300 300 301 301 301 302 302 301 301 300 300 300 299 298 299 295 295 293 297 292 294 296 296 296 296 296 296 295 294 294 295 296 296 298 298 296 292 293
306 296 295 296 300 308 305 303 302 304 304 304 304 302 299 301 300 301 300 299 298 298 298 299 299 299 300 297 296 294 294 297 297 294 293 293 295 299 299 299 300 301 301 301 299 299 300 300 300 301 302 302 302 302 301 300 300 300 300 298 297 297 296 295 293 294 294 295 297 298 297 296 296 296 296 295 294 295 295 296 296 297 296 297 296
304 303 298 295 301 301 303 299 302 302 301 303 302 302 300 301 301 300 300 300 299 298 299 298 298 299 298 296 295 297 298 297 296 294 292 293 294 297 298 297 297 298 299 301 301 300 301 302 302 302 302 302 302 301 300 299 300 300 299 297 296 296 296 297 297 297 297 297 297 297 297 296 297 297 296 295 295 296 296 296 296 296 297 297 297
303 302 297 297 298 303 302 301 302 302 302 300 300 301 301 301 300 299 301 300 298 297 299 299 300 300 297 294 293 295 299 297 295 293 293 294 294 295 297 298 298 299 299 300 300 301 302 303 303 302 302 301 301 300 300 299 299 297 297 295 295 295 296 297 296 296 296 296 296 296 296 296 296 296 295 295 294 295 296 296 297 297 297 296 296
302 302 301 300 302 302 301 300 300 298 299 297 301 301 299 299 301 300 298 297 295 298 299 300 300 298 293 291 291 292 298 297 295 294 294 294 294 297 297 298 300 301 301 302 302 303 303 303 303 302 301 300 300 299 299 298 298 296 296 296 294 295 295 296 296 295 295 295 295 295 295 296 295 295 295 294 296 296 296 297 297 297 298 297 296
302 302 301 300 301 301 300 301 302 302 301 302 301 296 298 301 301 299 298 298 297 298 298 298 298 297 293 289 290 291 298 296 292 294 294 295 295 297 298 300 301 302 303 303 303 304 303 302 302 302 300 301 301 299 297 297 297 296 296 296 295 294 294 295 295 295 294 294 295 294 294 294 294 295 296 295 296 296 296 295 295 297 297 297 296
305 305 302 301 301 301 302 303 302 302 303 298 297 298 299 300 300 299 298 297 297 298 299 298 297 296 294 291 290 293 297 297 296 296 295 295 296 298 301 302 302 301 301 301 302 302 302 301 299 301 302 301 301 301 300 299 298 297 296 295 294 294 294 294 294 295 295 295 295 295 295 294 294 296 295 295 296 295 295 295 295 296 297 297 297
306 304 304 304 305 303 302 302 301 299 296 298 300 300 299 301 300 299 298 298 295 297 298 297 295 294 292 293 294 295 297 297 296 296 296 297 298 300 301 301 301 301 301 301 301 301 301 300 300 297 297 300 300 300 300 299 299 299 298 296 294 294 294 294 295 296 297 295 296 296 297 296 295 295 296 296 295 294 296 295 296 294 295 296 296
305 304 303 303 303 301 302 302 298 301 301 301 301 301 301 302 301 300 298 298 297 297 296 295 295 294 293 293 294 294 297 298 298 298 297 298 297 297 297 297 297 297 298 298 297 299 299 298 297 296 295 296 299 299 299 299 299 299 299 299 298 298 298 299 299 297 297 295 296 298 297 296 296 295 294 297 297 296 296 296 296 296 296 295 295
306 306 304 303 302 301 301 302 302 303 304 304 303 303 303 303 303 299 296 297 297 297 297 296 296 294 294 294 294 295 297 296 295 294 294 295 295 296 295 296 295 296 296 297 298 298 297 296 295 294 292 293 297 299 299 299 299 299 299 299 299 300 300 300 301 299 298 296 297 298 298 297 296 296 294 294 295 296 295 296 296 294 295 296 296
306 304 303 302 303 302 302 302 300 297 303 303 303 303 302 302 302 301 300 298 297 297 297 297 296 296 294 295 294 295 294 295 296 295 296 296 297 297 296 296 295 296 296 297 297 297 295 294 294 294 293 294 294 297 298 299 300 300 300 299 299 299 298 296 301 302 301 300 299 298 297 297 297 297 296 295 294 296 295 296 296 297 295 295 296
305 304 303 302 301 301 300 301 300 303 303 303 302 303 303 303 303 303 302 301 300 299 300 298 298 297 297 296 296 296 296 296 298 299 299 300 299 299 297 297 296 298 297 296 295 294 295 296 295 295 296 296 296 296 298 299 299 299 299 299 297 292 291 291 296 301 298 297 298 299 299 298 296 295 295 294 295 296 297 296 296 296 296 295 295
305 304 304 302 302 301 301 302 303 304 302 303 303 303 302 303 302 302 303 302 301 300 300 300 299 300 301 299 298 299 300 300 300 300 300 300 299 299 299 299 298 298 296 297 295 296 296 297 297 297 296 297 296 296 297 297 298 298 299 300 293 290 290 289 290 292 297 298 299 298 299 298 297 296 296 296 295 294 294 295 295 295 296 295 294
302 304 304 304 304 304 304 305 305 305 305 304 304 303 302 303 303 303 302 301 300 300 300 300 300 300 300 301 300 299 298 298 298 297 297 297 299 299 300 300 299 298 297 297 296 297 297 297 297 294 294 294 295 296 296 297 297 298 295 292 291 290 289 289 293 289 289 293 298 298 297 297 295 295 295 296 297 296 293 294 294 295 296 296 295
Wind_Speed
21 22 20 20 17 21 22 17 19 20 19 18 18 17 14 12 12 11 10 10 10 11 11 11 11 10 10 10 10 9 9 8 7 7 7 7 5 6 6 7 7 5 6 6 5 6 6 7 6 6 5 6 5 4 4 4 3 3 2 3 4 4 5 5 5 7 4 2 2 3 3 2 3 0 1 1 3 4 5 5 5 5 5 5 5
18 20 21 21 22 20 19 17 19 19 19 18 19 17 15 11 11 11 12 11 12 12 12 10 10 11 10 10 10 10 10 9 8 7 7 7 6 4 6 7 7 7 6 7 7 5 6 7 7 6 5 6 6 6 5 5 4 4 4 4 4 5 4 5 5 6 7 4 4 4 4 3 2 2 2 3 3 4 5 5 5 5 5 5 5
20 21 20 20 22 20 20 19 20 20 20 18 19 18 15 12 12 12 11 10 11 11 12 11 12 11 10 10 10 10 10 9 8 8 7 8 8 6 6 7 7 7 7 7 8 6 7 7 7 6 5 6 5 5 4 4 4 4 4 3 4 5 4 4 6 6 7 6 4 5 4 3 0 2 1 1 2 4 5 5 5 4 4 4 5
18 21 21 21 22 20 21 20 21 20 20 18 20 18 16 12 12 12 12 10 11 10 10 12 11 12 11 11 11 10 10 8 8 8 9 9 8 8 8 7 7 7 8 8 8 8 8 7 7 7 7 7 6 5 4 4 4 4 5 4 4 5 4 4 4 6 6 7 5 4 4 3 3 2 1 1 2 3 4 5 5 4 5 5 5
18 19 21 22 21 21 21 20 20 21 21 18 20 19 16 13 12 13 12 11 12 11 10 10 11 12 11 12 12 11 10 10 9 9 8 8 9 8 8 8 7 8 7 8 8 8 8 8 8 8 8 7 6 5 5 5 4 4 4 4 4 4 4 4 4 5 6 6 6 3 3 3 2 1 1 2 2 2 3 4 6 6 5 4 4
21 22 20 21 20 22 21 20 22 23 22 19 19 18 17 14 13 11 12 13 11 11 12 11 11 12 12 12 12 11 10 10 10 10 10 9 8 7 7 8 8 8 7 8 8 8 8 8 8 8 8 8 7 6 6 6 4 4 5 5 5 5 5 5 4 5 5 5 6 5 3 3 3 1 1 1 2 3 3 4 4 5 7 6 5
21 21 21 22 20 21 22 22 21 20 19 19 17 17 17 15 14 13 12 13 12 12 12 12 11 12 12 11 11 11 11 10 9 9 9 9 9 8 7 8 8 7 7 8 8 8 8 8 8 8 8 8 8 7 7 6 5 5 5 5 5 6 5 5 5 6 5 5 4 3 4 3 1 2 2 0 2 2 3 4 4 4 5 7 7
22 21 21 21 21 22 21 21 20 19 18 15 17 17 16 17 15 13 13 13 13 13 13 13 11 11 11 11 10 10 9 9 9 9 9 9 8 8 8 8 8 7 7 7 7 7 8 7 8 8 8 7 8 7 7 6 5 6 5 5 5 6 5 5 5 5 5 5 5 5 3 3 4 2 1 2 3 2 0 3 5 6 6 6 5
23 22 20 22 20 20 17 16 18 15 17 17 12 16 16 16 14 13 12 12 11 13 13 13 12 12 11 10 11 9 9 9 8 9 9 10 9 9 9 9 9 8 8 7 7 7 7 7 7 7 6 6 8 8 8 7 6 6 6 6 6 6 6 5 5 5 5 5 5 4 4 4 3 3 2 1 1 2 3 2 4 4 5 6 5
23 22 22 23 20 18 16 15 17 17 13 17 15 13 12 14 14 13 13 13 11 11 12 12 13 13 13 11 10 8 7 6 10 15 13 10 10 8 8 9 10 9 9 8 7 8 8 6 5 7 7 8 9 9 8 8 7 7 8 7 7 6 6 6 5 5 5 6 6 6 5 5 4 3 1 1 1 2 3 3 4 5 5 5 4
22 22 23 22 18 16 14 17 13 12 14 19 13 13 14 12 13 13 13 12 12 11 11 13 12 11 13 13 12 9 8 8 16 16 15 14 11 10 10 9 10 9 9 9 9 8 6 6 6 7 8 8 8 9 9 8 6 6 7 6 5 6 7 6 5 6 6 5 5 5 5 4 4 3 3 2 2 2 2 2 3 4 5 7 7
21 21 20 16 18 17 17 17 18 14 16 19 16 12 11 12 13 12 12 12 10 11 12 13 12 12 11 12 11 10 9 13 18 17 16 16 12 10 9 9 9 9 9 10 8 8 8 7 6 6 7 8 8 7 7 7 8 9 8 6 4 1 3 0 5 6 6 5 6 6 5 5 4 4 3 3 2 2 2 3 3 3 5 6 6
19 17 16 16 15 16 16 17 18 16 19 18 13 11 11 12 12 13 13 11 10 12 14 13 12 12 12 13 12 10 9 16 18 18 17 17 15 12 9 9 10 9 9 10 10 9 8 8 7 6 6 10 9 8 8 7 7 9 9 6 3 3 2 2 6 2 5 5 6 6 6 4 5 4 3 2 1 3 3 3 3 4 4 5 6
18 16 15 17 15 11 13 16 17 16 16 14 11 12 12 13 12 11 11 10 10 11 12 14 13 13 13 12 11 10 10 17 19 19 17 17 16 12 9 10 9 10 10 10 9 10 10 9 9 8 7 8 8 9 9 8 8 6 6 5 5 5 4 4 4 2 4 5 6 6 6 4 4 3 3 2 3 3 3 3 4 5 5 6 8
17 15 15 14 12 12 11 15 15 12 13 13 14 12 15 17 17 12 11 12 13 13 13 13 12 13 13 12 11 10 9 19 19 19 18 18 17 11 8 8 8 9 9 9 9 10 10 9 10 9 9 9 7 9 9 9 9 7 6 5 5 6 6 6 7 6 5 5 5 5 3 5 4 2 2 3 4 4 4 5 5 6 7 8 9
14 13 13 14 13 14 14 16 15 15 16 16 16 16 15 19 19 12 11 8 9 8 10 12 13 13 13 13 11 11 9 21 20 20 19 18 18 9 8 9 9 9 9 9 9 9 10 9 9 9 9 8 9 12 10 8 8 7 6 6 6 5 5 2 2 2 4 5 5 5 3 1 3 3 3 2 3 3 4 5 5 6 6 6 7
15 15 15 14 14 14 15 15 15 15 16 16 15 11 12 14 17 12 11 12 12 9 11 12 11 12 12 10 10 9 9 17 20 20 19 19 15 9 9 8 8 9 9 9 9 8 8 10 9 8 9 9 12 13 12 11 9 8 7 7 6 5 7 4 4 4 5 5 6 6 7 6 5 6 6 5 5 4 4 5 5 3 6 7 7
14 15 14 13 13 14 14 15 15 15 15 16 16 15 12 14 12 11 13 12 12 10 11 11 11 11 13 13 13 14 10 15 22 21 21 21 16 11 10 9 9 9 8 8 7 7 8 11 11 9 9 9 14 14 14 11 9 8 8 8 7 7 7 4 3 3 4 4 5 7 7 7 7 8 9 8 7 6 5 5 4 4 6 7 8
13 14 12 13 14 13 13 14 15 15 15 15 14 14 14 14 12 12 10 11 13 12 10 11 9 9 9 12 18 14 8 12 18 20 22 22 16 9 10 9 9 9 9 8 7 7 7 9 12 10 11 11 16 15 15 12 9 9 9 8 8 8 7 7 6 6 5 5 5 5 6 8 7 7 6 8 8 9 8 7 4 5 6 7 8
18 14 11 12 12 12 13 14 15 15 16 14 13 15 13 10 9 12 13 12 10 9 8 8 11 11 11 13 11 11 11 11 16 21 21 21 18 10 9 9 10 10 9 9 8 7 7 8 10 12 12 15 17 16 16 14 10 9 8 8 7 7 6 6 8 7 7 7 6 5 6 4 4 5 5 5 6 8 8 7 5 5 5 6 7
11 10 11 12 13 13 13 15 16 15 15 14 13 10 11 14 15 13 11 9 10 13 14 12 11 11 10 8 8 9 9 12 14 19 20 22 19 14 9 10 10 10 9 9 9 9 8 8 8 12 13 14 16 16 16 15 12 8 9 8 8 4 4 4 6 5 7 6 6 5 6 6 6 6 6 5 5 5 6 6 6 5 5 6 7
10 11 12 13 14 14 15 14 15 13 13 14 14 12 11 11 13 17 12 11 12 13 14 14 14 11 9 9 9 9 11 17 14 18 19 20 21 19 11 10 11 10 9 8 8 8 8 8 8 12 15 13 14 16 16 15 14 8 9 10 7 9 4 4 5 6 7 7 7 7 8 8 8 8 7 7 6 5 5 5 5 6 6 6 6
11 11 12 12 12 14 14 15 13 11 12 13 14 17 16 16 13 10 12 13 13 12 12 15 14 14 11 8 8 9 9 10 17 15 19 19 19 18 16 12 13 10 10 10 10 9 8 8 9 13 16 14 14 15 15 15 11 10 11 9 9 8 4 4 5 6 6 7 7 8 8 8 8 8 8 7 6 3 3 4 4 5 6 6 7
12 11 11 11 11 12 13 14 13 11 13 13 13 16 15 16 13 12 12 12 12 12 11 12 14 14 13 11 11 10 9 8 13 18 17 21 19 18 16 16 16 11 9 8 8 8 8 9 9 15 15 15 15 15 15 13 10 13 11 11 10 8 5 5 5 6 6 6 7 8 8 8 8 8 8 7 5 4 4 5 5 5 6 5 6
12 11 12 13 15 15 15 13 14 13 13 15 14 15 17 17 15 13 14 13 13 13 13 11 14 13 13 11 11 10 11 11 9 13 19 19 20 19 17 17 16 15 10 8 8 9 10 13 14 16 16 16 16 15 12 13 15 14 12 11 10 6 7 6 6 6 7 7 8 8 8 8 8 7 4 3 4 4 5 5 5 5 4 5 6
12 13 13 13 14 13 15 17 18 18 14 14 14 16 17 15 12 11 12 12 13 14 15 11 10 11 12 11 12 11 10 10 9 10 12 14 15 18 19 17 17 16 14 10 12 12 13 13 15 15 15 13 10 7 8 9 14 11 10 11 7 7 7 7 7 6 7 8 8 8 8 7 6 3 1 2 4 6 5 5 5 6 4 4 5
12 12 14 15 14 13 15 15 15 15 15 12 11 8 10 13 11 11 12 12 10 10 10 11 10 10 11 12 12 13 12 11 9 8 8 10 9 11 12 11 14 13 11 7 8 7 10 11 9 11 9 13 10 7 8 7 7 6 6 7 8 7 7 7 7 7 7 7 7 7 7 6 3 2 5 5 5 6 4 4 5 6 6 4 5
12 13 13 11 10 11 13 13 14 10 10 11 11 11 9 10 10 10 12 12 12 10 7 9 11 12 12 10 10 12 12 12 12 13 13 12 11 11 11 10 10 9 11 9 8 8 8 7 8 7 6 6 6 5 6 6 7 8 8 8 8 7 6 3 2 6 6 6 6 5 5 4 6 6 5 6 6 6 4 4 4 5 5 4 6
13 13 13 11 9 10 11 9 11 9 7 6 4 6 8 9 9 7 8 10 13 13 11 10 10 12 13 14 16 16 16 14 14 14 17 19 17 12 11 11 10 9 11 11 8 7 7 7 8 8 8 7 5 7 7 6 6 7 7 7 7 7 6 7 8 8 7 6 7 7 7 6 6 6 5 6 6 6 4 4 4 5 4 4 7
12 11 10 11 11 11 10 10 10 8 9 8 9 8 7 9 8 12 13 15 14 15 16 15 16 13 12 10 12 14 14 14 15 20 18 20 21 22 20 18 15 11 11 16 11 8 9 9 9 8 8 8 7 6 7 7 7 6 6 7 7 7 7 8 8 8 7 7 7 7 7 6 6 6 6 6 6 5 4 3 4 3 5 6 6
9 9 10 11 11 10 8 8 8 9 12 13 13 13 9 6 10 5 6 11 15 16 16 9 12 12 12 11 7 7 7 10 16 17 17 19 19 18 17 18 17 14 15 12 8 7 6 7 7 8 8 8 7 8 7 6 5 5 6 7 8 8 7 8 8 7 7 4 6 7 6 5 6 6 6 5 5 5 3 4 4 4 5 5 6
9 9 10 9 8 9 8 10 11 11 10 9 10 9 10 10 6 9 10 12 11 11 12 14 16 15 13 11 11 7 13 17 17 18 17 17 16 16 16 16 15 16 18 16 8 8 8 7 7 8 9 8 6 8 8 9 9 8 8 6 6 8 8 7 8 8 7 6 5 4 4 5 7 6 5 5 5 5 5 4 4 4 4 4 5
11 9 7 7 8 9 10 10 10 11 11 10 10 11 13 12 12 9 7 9 10 11 12 13 15 13 13 14 15 15 16 18 20 19 20 19 18 17 17 17 18 18 18 11 9 8 9 11 10 10 9 8 9 9 8 8 8 8 8 8 6 7 7 8 7 7 6 7 5 5 4 4 4 4 3 5 4 4 4 5 5 4 4 4 4
12 9 9 9 10 10 10 11 11 10 10 12 13 12 11 12 12 14 13 10 7 7 7 9 12 12 11 14 13 12 15 18 20 21 20 20 19 18 16 12 14 18 18 12 10 7 9 10 10 10 9 9 9 8 7 7 7 7 6 6 7 7 7 7 6 7 7 6 5 5 4 4 4 3 3 4 4 4 3 4 5 3 3 3 3
4 5 8 10 9 10 10 9 8 9 10 10 10 11 10 9 11 13 14 15 13 12 8 5 6 12 11 10 12 15 16 17 19 20 20 19 19 17 15 10 9 7 9 10 11 9 10 10 8 7 8 8 8 8 8 8 7 7 7 7 7 7 6 6 7 7 8 8 7 4 4 3 5 5 4 4 3 3 3 3 3 4 5 5 3
5 6 7 6 4 4 5 7 9 10 11 10 9 8 8 10 11 9 8 8 9 10 8 7 6 6 13 12 15 15 17 17 17 18 19 20 20 21 12 10 8 10 10 9 8 8 9 8 8 7 8 8 8 8 9 8 8 9 9 9 8 7 7 6 6 6 7 6 4 4 5 4 4 4 3 3 6 5 4 4 3 3 4 4 3
4 6 6 5 5 5 5 7 7 7 7 8 10 8 8 7 7 8 9 10 10 9 9 8 8 6 6 4 10 12 14 14 15 16 17 18 21 15 9 10 10 10 10 10 9 9 8 7 8 8 8 8 8 8 8 8 8 8 8 8 9 8 7 6 5 4 4 4 4 4 6 5 4 4 3 4 4 4 4 4 3 3 3 2 2
5 5 5 5 6 6 7 7 8 10 10 10 9 10 11 10 9 8 9 10 10 10 11 9 8 10 10 7 7 6 9 13 15 12 11 13 10 9 8 8 9 10 10 9 9 9 8 7 8 8 8 8 8 7 8 8 7 7 7 8 7 7 5 4 5 6 3 3 4 4 4 4 3 3 4 5 5 4 4 4 3 3 3 3 3
4 6 9 8 6 7 7 8 8 8 8 7 7 10 10 10 10 9 8 9 9 8 8 9 9 9 8 8 8 9 12 8 7 6 8 7 7 7 7 7 8 8 8 8 8 9 9 9 9 9 9 8 8 8 7 7 8 8 8 7 6 4 4 4 3 4 4 5 5 5 4 4 4 4 4 4 5 4 4 4 4 4 4 3 3
6 6 7 9 8 9 8 8 9 8 8 8 8 7 8 8 8 9 9 9 10 9 9 9 9 8 8 9 9 8 8 9 8 9 8 8 7 7 6 7 7 7 8 8 8 9 9 9 9 9 9 8 7 7 7 8 7 8 8 5 5 5 6 5 6 6 7 6 5 5 4 4 5 5 4 5 5 5 4 5 4 4 4 4 4
5 7 7 7 7 7 6 7 7 8 9 9 9 9 8 9 7 7 9 9 9 9 9 9 8 7 9 11 13 13 10 9 8 7 8 8 8 7 7 7 8 8 8 8 8 8 8 8 8 7 7 7 7 7 7 7 7 6 5 5 5 6 6 6 6 6 6 5 5 6 5 5 5 5 5 5 7 5 4 4 4 4 4 3 3
6 6 7 7 8 7 6 5 6 7 7 6 8 8 8 8 8 7 7 8 7 8 8 7 7 6 9 15 13 9 7 7 7 8 7 6 6 7 7 7 7 8 8 8 8 8 7 7 7 7 7 7 7 7 7 7 8 6 6 6 6 6 6 6 6 6 5 6 6 6 5 5 5 5 6 7 4 4 4 4 4 4 3 3 3
7 7 7 7 7 5 5 7 7 7 7 7 7 7 8 8 7 7 7 7 6 7 7 7 7 6 8 10 10 9 6 6 7 8 6 7 8 8 8 7 7 7 7 6 6 6 7 7 7 7 6 7 8 7 6 6 6 6 6 6 6 6 6 6 5 5 5 6 5 5 5 5 5 5 5 4 5 4 4 4 4 4 3 3 3
8 6 7 8 7 5 4 5 6 6 6 8 8 8 8 7 7 6 6 6 5 5 7 7 7 7 7 7 8 6 6 8 8 8 9 8 8 8 8 7 7 6 6 5 5 5 6 5 4 5 6 6 6 7 7 7 7 6 5 6 6 6 6 6 6 5 5 5 5 5 5 5 6 5 5 4 4 4 4 4 4 4 3 3 3
7 8 7 6 6 5 5 5 6 6 8 8 7 7 7 6 7 6 7 6 6 5 5 6 7 7 7 7 8 8 7 7 7 7 8 8 8 8 7 6 6 7 6 6 5 6 6 6 7 4 5 6 6 6 6 6 7 7 7 6 5 6 6 6 6 5 4 4 4 4 4 4 5 5 5 4 4 4 4 5 5 5 3 3 3
6 5 6 7 8 6 6 6 7 7 6 7 7 7 6 6 6 6 6 6 6 6 5 6 5 6 6 6 6 7 7 7 7 7 7 7 6 5 4 4 4 4 4 4 4 6 6 6 4 4 5 5 6 6 6 6 6 6 6 7 7 7 7 7 7 4 4 4 4 4 4 3 4 4 5 3 3 4 5 4 4 4 3 3 4
6 5 6 6 6 6 6 6 7 7 7 7 7 6 6 6 6 6 5 6 6 6 6 6 6 5 4 5 6 6 6 5 5 4 5 5 5 5 5 5 5 5 4 4 5 6 6 6 3 3 4 4 5 6 6 6 6 6 7 6 7 7 6 6 6 4 5 4 4 4 3 3 3 3 3 4 3 4 4 4 4 4 3 3 3
5 6 7 5 5 6 6 6 7 6 7 6 5 5 5 5 6 6 6 6 6 5 5 5 5 6 6 6 5 5 5 6 6 6 6 7 6 5 5 5 4 5 4 5 5 5 5 4 6 5 4 5 4 6 6 6 6 7 7 7 7 7 7 7 6 6 6 5 5 4 4 3 3 2 2 4 4 3 4 4 3 3 3 3 3
5 5 6 5 4 5 4 6 6 6 7 7 5 5 5 4 4 5 5 6 6 5 6 6 5 6 6 6 6 7 7 8 7 7 7 6 6 6 6 6 6 6 5 4 4 7 6 6 5 5 6 6 6 6 6 7 7 7 7 7 8 11 9 9 7 6 6 4 3 4 4 4 3 3 3 3 4 4 4 3 3 3 3 3 3
4 5 5 6 5 6 5 5 6 6 6 7 6 6 4 4 4 4 4 5 5 4 4 5 6 6 6 6 7 7 7 7 6 6 5 5 5 6 6 6 7 7 5 6 3 5 5 6 6 6 5 6 6 6 6 6 7 7 7 8 9 11 11 11 11 7 6 4 4 4 6 4 3 3 3 3 3 4 3 3 3 3 3 3 3
5 4 4 4 5 5 5 5 6 6 6 6 6 5 5 4 4 4 4 4 4 4 4 4 4 4 4 4 5 5 5 4 4 4 5 5 6 6 6 6 6 6 5 5 5 6 6 6 5 4 5 4 5 6 6 6 6 7 8 9 10 11 12 11 8 10 11 7 4 4 4 4 4 4 3 3 3 3 4 4 3 3 3 3 3
Wind_Direction
193 200 197 197 190 196 197 188 190 198 198 196 196 198 192 176 177 174 162 172 167 171 174 174 174 169 165 162 163 163 163 160 161 158 160 156 159 159 159 173 174 163 159 158 165 167 164 155 148 143 150 145 138 138 134 131 137 143 155 170 173 179 191 189 175 128 131 124 140 141 134 183 152 33 30 8 360 357 342 1 356 352 348 341 344
196 198 199 199 198 194 193 192 194 194 196 195 197 197 191 172 170 166 171 172 173 174 175 171 171 169 164 163 162 165 166 162 159 161 158 154 155 155 166 173 175 165 164 164 164 165 159 153 149 148 155 145 144 146 144 146 144 140 145 166 172 169 181 173 151 150 145 156 162 151 149 211 165 110 59 6 358 345 342 347 354 357 354 344 341
198 201 196 195 196 194 194 193 194 194 193 193 196 197 190 169 170 170 172 170 174 175 174 171 171 169 165 162 163 165 166 160 160 160 157 161 163 167 171 175 175 170 172 167 166 161 161 155 153 152 153 146 144 132 136 137 132 127 128 140 140 144 156 157 147 142 148 147 154 161 157 158 147 99 72 39 341 334 329 346 349 348 350 339 334
195 198 196 196 193 190 193 195 194 193 193 195 196 195 185 168 171 175 175 168 173 175 170 170 167 168 166 165 165 164 162 159 160 165 165 167 168 171 173 177 178 176 174 168 164 169 168 159 157 159 159 149 146 141 138 133 133 125 121 116 120 122 125 130 142 140 150 144 170 168 150 156 158 153 99 329 4 344 339 334 333 351 348 345 334
192 195 196 194 191 192 192 192 193 194 194 194 195 191 184 165 173 174 171 173 175 168 168 169 169 171 168 170 168 166 165 161 161 164 165 170 171 168 173 176 177 178 173 170 168 174 171 168 161 163 162 151 147 149 144 140 134 131 124 121 119 118 121 129 128 138 147 145 141 134 146 156 128 120 38 354 1 333 341 345 345 349 349 336 327
198 196 195 194 192 192 192 193 195 196 194 194 192 188 184 172 171 171 173 174 169 171 170 173 175 177 175 172 168 165 162 164 165 165 167 168 170 167 169 171 174 175 173 173 175 175 174 168 164 165 164 159 156 146 147 145 137 133 129 126 125 123 119 118 126 135 136 134 144 145 168 161 163 147 69 8 333 337 345 344 339 350 345 347 345
196 194 194 196 194 194 194 196 196 195 193 191 187 186 182 176 175 174 175 174 170 171 177 176 177 177 174 168 167 162 160 160 161 161 165 168 170 167 164 167 169 169 176 176 175 175 174 167 164 166 169 163 154 155 151 148 148 144 138 132 131 131 126 123 130 132 131 132 136 147 149 150 210 175 142 239 256 289 329 336 348 3 350 341 335
194 195 194 195 196 196 197 196 195 194 192 178 183 186 183 184 179 172 170 173 176 176 176 177 174 176 171 170 165 157 152 156 158 162 164 165 166 166 165 167 171 170 172 176 173 176 174 168 168 171 173 163 160 155 151 153 155 150 144 143 143 138 131 132 137 139 144 155 161 162 165 157 172 197 206 234 230 200 18 333 335 343 345 335 334
192 193 193 196 196 196 193 192 193 188 181 182 172 180 180 181 172 171 169 172 174 178 176 175 171 174 168 166 162 157 156 160 160 162 163 166 166 166 169 172 170 171 173 173 174 174 173 168 169 173 166 150 149 152 162 159 162 158 155 157 156 147 141 147 148 153 161 164 158 161 166 180 186 185 201 208 348 6 344 303 299 328 333 331 348
193 193 195 197 193 190 188 184 183 181 167 181 177 169 164 173 176 171 172 174 170 171 172 173 173 172 167 167 163 160 160 161 167 166 164 163 166 165 167 172 173 171 171 169 172 176 173 168 161 151 145 142 147 153 153 165 170 165 164 167 164 157 154 154 160 168 170 174 174 174 183 188 178 190 197 200 272 273 267 277 315 339 320 324 323
194 194 197 195 188 186 185 187 173 166 173 185 173 164 167 169 175 175 175 173 170 165 167 171 176 173 168 166 168 169 167 169 163 165 166 161 161 165 168 171 174 172 172 172 173 171 165 165 162 157 153 152 154 158 160 165 161 143 151 163 168 168 162 162 169 177 181 185 174 187 194 182 182 185 204 205 227 270 312 312 313 319 336 336 338
195 197 197 186 185 185 187 181 179 176 175 182 175 159 156 163 175 174 174 172 167 165 170 175 175 171 168 168 167 170 172 162 163 166 167 166 165 162 166 168 172 175 178 176 170 165 168 167 168 166 175 170 161 161 161 157 149 147 153 154 167 330 348 117 176 180 193 187 181 194 193 191 181 192 193 215 226 244 248 277 297 319 328 332 331
194 194 187 182 181 184 181 181 180 176 182 182 168 149 157 165 173 177 181 176 157 170 177 172 176 174 170 170 171 171 168 159 165 167 169 170 168 162 170 170 172 177 176 177 173 171 169 168 166 171 162 153 161 168 163 157 153 158 161 159 166 194 212 4 349 323 195 200 194 193 201 189 195 196 200 232 280 279 287 288 329 314 310 312 330
188 186 182 183 180 170 173 181 179 174 174 169 152 160 162 171 173 175 172 168 165 174 180 178 175 174 173 171 170 173 167 163 167 168 169 169 168 169 168 168 173 175 176 176 173 173 172 172 172 172 165 172 178 169 168 160 159 159 164 180 189 193 204 210 218 278 286 225 209 205 196 200 212 189 176 213 245 268 289 299 317 311 313 314 308
184 180 179 179 169 175 170 175 173 164 163 169 172 167 173 180 185 182 176 176 173 177 179 181 178 176 175 173 171 171 169 162 166 168 168 167 168 172 164 164 170 173 177 176 174 175 175 175 177 175 170 176 174 171 168 164 160 161 169 182 202 202 206 203 204 206 203 219 222 223 200 207 232 235 220 233 250 269 287 296 302 296 291 284 268
180 179 181 183 182 180 177 177 174 170 172 174 176 175 173 182 186 179 175 172 177 168 179 185 177 176 172 171 172 173 160 166 167 168 166 166 164 171 164 168 172 175 176 175 175 179 176 173 175 174 171 175 159 165 165 155 159 167 178 190 205 210 216 137 41 274 232 217 216 226 232 19 355 306 322 304 273 261 265 260 257 254 265 291 317
182 183 185 182 182 180 176 172 171 172 173 175 175 165 168 175 184 174 176 181 179 176 182 186 182 173 164 166 167 157 153 174 167 166 164 163 165 171 164 169 174 177 178 173 176 174 172 175 178 173 170 176 157 162 152 158 170 176 183 193 203 205 214 168 159 204 255 286 300 310 309 301 278 272 265 256 257 290 284 267 254 264 293 308 318
182 184 185 181 179 175 173 171 171 173 174 178 178 175 166 176 175 177 182 177 184 183 179 181 183 177 171 168 160 174 183 174 168 166 164 168 173 169 167 171 172 174 170 172 176 177 176 173 177 175 173 173 156 166 161 168 178 180 188 193 194 202 207 181 177 174 163 220 244 258 264 267 267 267 262 245 215 216 232 265 324 310 300 310 315
181 184 180 176 175 170 169 171 171 172 177 179 174 173 179 179 169 167 182 184 186 181 171 179 171 161 163 170 176 173 143 171 174 167 168 173 176 161 166 168 168 171 171 172 175 179 177 181 180 177 182 157 161 168 173 181 186 185 188 192 195 202 207 190 192 196 196 210 221 220 239 232 239 246 241 202 200 208 227 253 277 287 304 313 313
191 185 172 167 163 164 166 169 172 175 179 177 176 176 171 171 177 176 176 181 185 186 182 166 160 169 170 180 179 164 154 161 177 174 172 174 178 165 166 168 175 173 175 173 174 182 178 181 185 186 179 160 171 175 180 190 191 189 188 196 196 202 201 198 204 212 210 218 224 215 233 243 240 242 242 212 199 207 223 235 251 271 291 305 310
176 172 164 161 162 165 168 173 176 179 175 173 175 175 178 177 170 176 186 173 168 178 179 183 170 170 175 168 166 164 155 160 175 177 177 175 175 163 171 174 173 172 176 176 183 180 181 185 185 184 185 175 175 179 182 191 201 192 194 198 203 157 132 196 194 206 224 220 227 227 233 235 233 234 230 221 209 198 213 225 235 249 266 291 305
171 167 165 165 165 168 171 177 177 178 178 169 170 176 181 181 178 180 174 171 173 177 176 180 184 176 169 161 169 164 159 169 164 180 182 179 176 174 171 175 172 167 169 181 184 185 184 182 187 175 182 182 182 182 187 191 197 205 200 204 132 122 166 202 189 192 215 218 223 226 229 234 236 236 236 237 229 196 214 222 223 236 242 253 272
167 167 166 166 166 169 172 173 177 176 172 174 173 178 180 183 180 172 168 168 169 171 174 180 179 179 174 168 168 167 159 166 173 171 181 180 180 181 180 171 168 168 177 183 186 187 186 182 184 169 179 180 181 185 190 195 188 209 205 180 149 156 151 206 193 199 212 218 223 229 232 235 238 239 240 242 243 224 236 240 243 243 243 243 248
165 162 163 161 163 169 174 177 176 173 171 174 180 177 179 182 169 167 171 168 170 173 178 175 177 174 171 169 175 175 163 158 175 177 176 182 181 180 180 176 171 184 177 184 182 180 180 183 175 169 178 183 186 187 192 184 195 206 203 175 156 158 188 180 197 210 215 224 225 231 235 236 239 243 245 250 268 304 299 286 269 244 241 247 238
165 166 165 168 174 181 180 177 178 174 175 175 179 184 184 180 176 176 167 173 177 176 179 176 177 168 168 168 170 169 169 171 157 180 180 184 182 180 182 178 180 178 182 195 182 184 184 177 173 173 181 186 190 191 187 190 202 203 193 163 159 187 191 203 205 210 219 226 230 234 238 238 241 247 270 314 304 284 272 269 261 249 237 237 246
169 172 176 181 186 183 180 182 185 184 174 181 181 187 188 182 171 160 170 178 182 179 180 176 173 168 171 164 167 166 167 165 161 164 181 185 187 188 185 184 181 184 186 191 187 180 171 174 174 177 181 186 185 188 195 196 203 199 169 164 188 199 200 203 210 212 228 230 232 237 241 244 241 236 265 268 274 274 272 280 288 277 251 259 277
177 176 183 189 187 184 186 190 190 189 181 176 179 168 175 186 179 172 174 175 180 184 174 169 161 162 167 171 167 165 172 170 157 153 172 181 190 191 191 192 183 182 194 187 164 164 167 171 178 179 181 179 185 178 193 158 157 169 180 192 205 202 196 208 213 220 228 238 240 243 243 248 260 255 254 243 256 263 247 261 272 280 284 281 285
179 185 183 179 181 188 194 191 190 189 174 166 164 173 178 180 177 169 167 171 176 179 173 170 166 165 172 167 167 169 171 174 176 176 177 178 183 183 188 180 175 185 188 182 165 165 161 161 154 166 154 151 180 181 188 180 182 177 186 192 199 199 196 169 217 233 239 241 251 253 257 251 253 253 250 251 260 264 228 240 251 272 273 277 281
189 187 187 184 181 187 195 188 194 182 145 146 145 157 170 181 165 164 192 171 167 168 178 178 178 182 173 170 175 182 186 188 191 179 178 178 175 174 177 180 176 178 181 150 135 135 148 165 178 175 179 180 178 189 181 180 180 185 186 188 189 190 191 201 211 219 223 223 232 240 247 246 248 249 250 258 261 260 218 231 231 256 262 259 273
187 187 182 185 187 186 193 184 182 154 133 130 112 77 70 112 164 174 180 191 172 165 159 172 181 178 183 184 177 174 184 192 175 174 180 183 186 184 184 178 175 171 152 150 159 166 179 183 184 184 183 188 188 188 185 185 187 187 194 194 201 198 200 203 212 220 216 220 232 237 243 248 254 252 254 256 263 252 218 230 248 237 252 265 274
188 187 185 192 189 184 169 140 132 132 151 157 160 155 136 56 37 51 106 123 139 147 169 156 167 186 178 168 163 71 91 134 158 172 175 181 184 180 173 174 174 163 143 146 174 181 177 184 183 186 186 192 191 196 189 189 189 192 194 188 204 206 204 208 211 215 216 215 226 240 246 249 258 259 259 263 269 274 253 223 238 236 247 260 276
185 186 190 185 159 156 155 159 162 155 158 162 154 148 141 130 92 44 98 133 130 138 151 151 164 165 169 157 147 125 137 149 157 160 165 168 171 171 170 166 162 154 162 164 174 189 188 188 186 192 192 197 193 196 198 202 198 201 199 195 200 200 198 209 206 209 209 215 221 229 236 245 251 251 255 264 267 271 266 249 240 236 241 249 260
182 180 170 145 151 155 156 165 165 160 157 158 157 160 160 154 139 124 66 81 116 137 147 154 157 158 150 152 161 159 156 155 156 158 160 166 169 171 167 164 162 162 158 174 195 187 189 196 196 196 194 197 195 198 200 204 204 204 204 199 199 195 202 209 198 208 213 218 219 227 233 236 235 242 246 253 251 259 255 254 247 235 233 246 250
190 169 160 164 166 168 174 172 167 169 168 166 167 170 169 161 154 145 139 130 89 59 78 140 149 141 144 148 141 133 145 153 157 161 164 165 166 163 160 160 160 164 170 184 191 190 185 197 202 201 199 198 200 192 197 204 207 207 206 210 213 209 199 189 187 203 210 215 221 230 226 231 221 233 247 248 245 251 255 252 246 241 242 245 263
140 107 152 167 176 177 177 168 159 161 165 167 168 168 165 162 152 153 157 158 159 155 151 125 139 143 142 145 145 146 153 159 163 164 162 158 154 148 134 132 152 186 201 205 197 183 182 197 191 191 198 196 200 196 200 203 204 207 211 213 218 217 197 186 200 202 208 213 214 212 203 213 227 234 242 249 249 245 247 245 242 237 244 249 254
150 146 153 163 153 149 149 160 158 162 164 166 160 157 153 149 155 151 128 113 121 129 125 132 119 125 138 144 149 154 157 160 160 155 153 152 149 147 160 174 171 181 190 199 200 187 196 195 186 193 198 203 198 201 203 203 207 213 217 218 217 214 208 200 192 200 205 204 204 211 214 222 231 233 237 245 249 252 260 256 251 232 232 243 252
142 139 147 151 143 136 133 138 147 144 127 121 121 116 112 111 113 128 137 139 140 138 129 130 122 100 94 111 149 147 145 144 142 143 147 151 156 166 178 173 177 174 184 192 191 190 196 193 193 198 201 201 200 198 200 206 209 212 211 219 222 219 208 196 188 188 183 194 204 206 211 223 221 218 220 243 249 247 250 253 248 239 226 190 191
107 125 133 128 126 119 126 131 129 123 128 135 137 145 150 152 145 138 142 142 136 134 137 142 145 147 158 156 145 132 110 106 106 109 125 141 161 185 179 174 179 182 184 188 184 187 194 195 196 203 204 203 204 201 202 206 204 209 208 213 218 219 195 196 197 200 197 203 206 209 216 217 218 230 231 240 250 256 249 237 236 225 199 175 210
68 102 112 107 100 114 112 115 121 123 123 129 131 135 134 138 139 137 136 130 130 134 139 145 151 157 152 141 140 128 119 133 151 150 156 166 171 180 174 170 179 186 183 181 174 185 195 197 199 204 207 208 207 206 199 196 205 209 207 207 209 208 199 207 200 203 208 217 222 221 219 220 222 229 232 239 238 240 243 243 229 225 223 214 220
92 83 89 103 114 118 129 128 124 122 126 123 120 117 123 133 141 141 140 139 141 147 152 155 159 159 147 148 144 155 152 154 157 158 161 164 173 179 173 168 175 178 181 186 185 188 193 199 198 199 202 205 204 198 192 202 206 209 208 210 206 205 206 211 215 216 220 221 227 228 227 228 237 242 239 235 241 237 234 229 227 213 214 229 244
93 99 96 82 91 106 111 123 132 135 135 130 132 134 138 135 138 137 140 142 143 150 159 163 158 147 157 167 166 168 160 154 148 150 160 162 168 173 175 179 181 181 183 186 184 187 193 197 196 197 198 202 203 204 205 204 206 207 209 208 209 215 213 213 215 221 221 222 226 228 229 227 231 233 234 235 231 239 237 233 226 214 210 216 229
104 96 97 106 106 103 102 88 91 95 100 114 123 128 129 128 132 136 135 135 140 145 144 147 147 137 150 156 167 162 139 141 138 149 158 167 162 173 189 190 186 184 185 188 188 187 192 195 195 194 195 195 196 201 202 204 202 203 203 205 205 207 214 215 211 214 215 223 223 223 229 229 228 229 236 245 236 221 228 222 221 211 209 211 219
106 103 99 94 91 97 113 120 118 114 115 112 112 110 117 127 131 128 124 125 130 137 138 147 145 136 143 154 159 152 129 142 155 155 154 160 179 193 194 191 188 188 189 190 189 192 190 194 196 196 196 196 196 192 194 198 196 199 201 200 202 203 208 216 212 204 208 217 223 215 214 222 224 228 228 221 224 226 224 220 217 215 206 210 221
99 85 91 92 92 90 100 118 121 122 120 113 116 120 126 121 119 116 115 124 128 138 149 151 146 142 130 139 155 168 145 151 163 171 176 180 187 191 195 193 185 182 185 187 186 188 192 195 198 201 197 197 196 195 198 198 194 195 197 197 199 201 206 212 214 207 201 205 208 209 210 217 221 226 221 217 212 215 216 216 217 209 208 211 212
97 104 103 104 104 106 99 97 96 97 106 115 120 117 116 116 121 120 125 125 132 137 143 142 138 138 138 151 168 178 172 170 173 177 181 185 189 194 192 184 180 180 183 188 188 190 200 201 199 195 192 196 193 194 198 196 196 196 197 196 198 198 204 205 210 208 195 197 211 213 213 210 209 217 222 212 203 205 217 207 209 199 202 220 218
105 106 112 118 117 110 106 107 108 116 113 112 116 120 118 116 121 128 129 130 138 141 136 139 134 139 150 151 160 173 179 174 176 179 179 188 191 189 179 172 170 173 177 182 182 187 199 206 197 194 190 196 194 195 194 195 196 202 202 202 203 204 204 206 205 188 186 194 215 220 215 216 217 220 211 215 201 202 214 212 200 195 210 211 219
98 102 104 103 98 97 104 120 124 124 121 118 117 119 120 123 124 125 128 133 135 136 137 140 138 143 149 150 164 177 176 172 167 164 176 181 184 184 179 176 175 178 181 182 187 190 196 203 204 195 187 194 196 195 197 196 198 200 204 206 208 211 214 205 191 191 196 200 205 223 224 229 217 218 193 210 217 204 211 210 203 194 206 222 230
84 89 94 97 107 110 110 111 106 99 106 106 104 111 116 122 131 136 138 136 138 137 131 135 143 148 151 161 170 169 168 180 180 187 190 192 188 183 173 172 178 179 181 183 177 182 202 202 203 204 201 197 201 202 203 203 203 201 201 202 204 208 206 200 203 197 204 200 200 210 212 227 238 230 207 189 209 204 201 203 196 199 201 210 227
93 93 95 91 90 89 99 106 112 116 121 124 117 120 124 125 129 135 139 143 145 149 152 154 156 158 165 167 168 175 178 184 189 192 194 191 184 180 178 179 178 182 186 190 188 190 194 196 198 200 200 198 199 206 210 209 208 207 204 208 202 202 199 192 211 208 197 199 201 206 215 222 226 227 217 208 206 215 221 211 198 203 204 214 216
81 96 106 107 100 102 107 113 116 115 116 123 128 127 120 121 132 135 139 140 142 142 148 152 160 169 172 170 177 183 182 185 185 184 185 185 183 180 181 182 185 187 191 192 187 186 190 193 193 198 198 200 199 204 211 211 211 210 209 210 195 192 204 201 212 212 193 211 205 209 210 217 218 219 217 207 207 210 220 211 209 209 216 211 217
57 67 71 80 96 110 119 118 113 116 120 124 126 130 135 138 139 140 139 134 138 150 158 163 161 161 170 173 174 178 179 178 173 173 177 185 186 183 182 181 181 183 189 188 185 198 200 198 198 194 196 194 199 201 207 212 213 215 212 200 190 196 201 200 205 206 215 227 215 208 210 211 211 212 214 213 204 203 211 216 208 212 221 222 225